Weather History for Aurora, NE

Change the Weather History Date:

Friday, October 11, 2013

  Actual Average Record
Temperature  
Mean Temperature 60 °F -  
Max Temperature 73 °F 66 °F 85 °F (1966)
Min Temperature 46 °F 41 °F 26 °F (1987)
Degree Days  
Heating Degree Days 6    
Growing Degree Days 10 (Base 50)    
Moisture  
Dew Point 50 °F    
Average Humidity 67    
Maximum Humidity 93    
Minimum Humidity 36    
Precipitation  
Precipitation 0.03 in - - ()
Sea Level Pressure  
Sea Level Pressure 29.71 in    
Wind  
Wind Speed 16 mph (SW)    
Max Wind Speed 23 mph    
Max Gust Speed 33 mph    
Visibility 10 miles    
Events Rain    
Averages and records for this station are not official NWS values.
T = Trace of Precipitation, MM = Missing Value Source: NWS Daily Summary

Daily Weather History Graph

Daily Weather History Graph

Search for Another Location

Airport:

Trip Planner

Search our weather history database for the weather conditions in past years. The results will help you decide how hot, cold, wet, or windy it might be!

Date:

Astronomy

Oct. 11, 2013 Rise Set
Actual Time 7:39 AM CDT 6:57 PM CDT
Civil Twilight 7:11 AM CDT 7:24 PM CDT
Nautical Twilight 6:39 AM CDT 7:56 PM CDT
Astronomical Twilight 6:08 AM CDT 8:28 PM CDT
Moon 2:23 PM CDT (10/11) No Moon Set
Length of Visible Light 12h 13m
Length of Day
11h 17m
Waxing Crescent, 47% of the Moon is Illuminated
Oct 11
Waxing Crescent
Oct 11
First Quarter
Oct 18
Full
Oct 26
Last Quarter
Nov 3
New

Hourly Weather History & Observations

Time (CDT) Temp. Dew Point Humidity Pressure Visibility Wind Dir Wind Speed Gust Speed Precip Events Conditions
12:15 AM 67.1 °F 57.2 °F 70% 29.73 in 10.0 mi South 17.3 mph 27.6 mph N/A   Clear
12:35 AM 66.7 °F 57.2 °F 71% 29.74 in 10.0 mi South 18.4 mph 23.0 mph N/A   Clear
12:55 AM 66.4 °F 57.2 °F 72% 29.72 in 10.0 mi South 17.3 mph 24.2 mph N/A   Clear
1:15 AM 66.2 °F 57.0 °F 72% 29.72 in 10.0 mi South 17.3 mph 23.0 mph N/A   Scattered Clouds
1:55 AM 66.2 °F 57.0 °F 72% 29.72 in 10.0 mi South 13.8 mph 20.7 mph N/A   Mostly Cloudy
2:15 AM 66.4 °F 57.2 °F 72% 29.73 in 10.0 mi SSW 20.7 mph 24.2 mph N/A   Overcast
2:35 AM 65.5 °F 56.3 °F 72% 29.71 in 10.0 mi SSW 15.0 mph 19.6 mph N/A   Overcast
2:55 AM 64.9 °F 56.5 °F 74% 29.71 in 10.0 mi South 17.3 mph 21.9 mph N/A Rain Light Rain
3:15 AM 63.5 °F 58.1 °F 83% 29.69 in 10.0 mi South 13.8 mph - N/A Rain Light Rain
3:35 AM 62.6 °F 58.3 °F 86% 29.65 in 10.0 mi SSE 13.8 mph - N/A Rain Light Rain
3:55 AM 63.0 °F 57.6 °F 82% 29.62 in 7.0 mi South 16.1 mph 25.3 mph 0.03 in Rain Rain
4:15 AM 61.9 °F 59.0 °F 90% 29.60 in 10.0 mi SSE 16.1 mph 23.0 mph N/A   Light Drizzle
4:35 AM 62.6 °F 59.7 °F 90% 29.60 in 10.0 mi SSE 16.1 mph 24.2 mph N/A   Overcast
4:55 AM 62.6 °F 59.9 °F 91% 29.60 in 10.0 mi SSE 15.0 mph 25.3 mph N/A   Mostly Cloudy
5:15 AM 62.6 °F 59.9 °F 91% 29.61 in 10.0 mi South 12.7 mph 21.9 mph N/A   Scattered Clouds
5:35 AM 61.9 °F 59.7 °F 93% 29.61 in 10.0 mi South 13.8 mph - N/A   Clear
5:55 AM 61.2 °F 59.0 °F 93% 29.59 in 10.0 mi SSE 15.0 mph 21.9 mph N/A   Clear
6:15 AM 61.0 °F 58.6 °F 92% 29.59 in 10.0 mi SSE 16.1 mph 23.0 mph N/A   Clear
6:35 AM 61.5 °F 58.3 °F 89% 29.61 in 10.0 mi South 15.0 mph 21.9 mph N/A   Scattered Clouds
6:55 AM 61.3 °F 58.3 °F 90% 29.61 in 10.0 mi South 15.0 mph 21.9 mph N/A   Scattered Clouds
7:15 AM 60.8 °F 58.1 °F 91% 29.62 in 10.0 mi South 12.7 mph 18.4 mph N/A   Scattered Clouds
7:35 AM 60.8 °F 58.3 °F 91% 29.61 in 10.0 mi South 12.7 mph - N/A   Scattered Clouds
7:55 AM 60.8 °F 58.3 °F 91% 29.61 in 10.0 mi South 12.7 mph 20.7 mph N/A   Clear
8:15 AM 60.8 °F 58.3 °F 91% 29.61 in 10.0 mi South 12.7 mph 19.6 mph N/A   Clear
8:35 AM 61.0 °F 58.5 °F 91% 29.61 in 10.0 mi South 17.3 mph 24.2 mph N/A   Clear
8:55 AM 61.7 °F 58.6 °F 90% 29.61 in 10.0 mi South 16.1 mph 24.2 mph N/A   Clear
9:15 AM 62.4 °F 59.0 °F 89% 29.62 in 10.0 mi SSW 18.4 mph 23.0 mph N/A   Scattered Clouds
9:35 AM 63.3 °F 59.2 °F 86% 29.62 in 10.0 mi SSW 20.7 mph 28.8 mph N/A   Mostly Cloudy
9:55 AM 64.2 °F 58.6 °F 82% 29.62 in 10.0 mi SSW 20.7 mph 31.1 mph N/A   Scattered Clouds
10:15 AM 65.1 °F 57.7 °F 77% 29.62 in 10.0 mi SSW 20.7 mph 25.3 mph N/A   Clear
10:35 AM 66.2 °F 55.6 °F 69% 29.61 in 10.0 mi SSW 20.7 mph 26.5 mph N/A   Clear
10:55 AM 67.1 °F 53.8 °F 62% 29.60 in 10.0 mi SSW 18.4 mph 28.8 mph N/A   Clear
11:15 AM 68.7 °F 52.5 °F 56% 29.62 in 10.0 mi SSW 20.7 mph 27.6 mph N/A   Clear
11:35 AM 69.4 °F 49.8 °F 50% 29.62 in 10.0 mi SSW 23.0 mph 33.4 mph N/A   Clear
11:55 AM 70.0 °F 45.9 °F 42% 29.62 in 10.0 mi SW 23.0 mph 29.9 mph N/A   Clear
12:15 PM 70.9 °F 43.9 °F 38% 29.63 in 10.0 mi SW 20.7 mph 27.6 mph N/A   Clear
12:35 PM 70.9 °F 42.8 °F 36% 29.63 in 10.0 mi SW 18.4 mph 25.3 mph N/A   Clear
12:55 PM 71.6 °F 43.5 °F 36% 29.64 in 10.0 mi SW 19.6 mph 24.2 mph N/A   Clear
1:15 PM 71.1 °F 43.5 °F 37% 29.64 in 10.0 mi SW 19.6 mph 24.2 mph N/A   Clear
1:35 PM 71.4 °F 43.7 °F 37% 29.64 in 10.0 mi SW 20.7 mph 32.2 mph N/A   Clear
1:55 PM 72.1 °F 44.6 °F 37% 29.64 in 10.0 mi WSW 17.3 mph 27.6 mph N/A   Clear
2:15 PM 72.5 °F 45.1 °F 37% 29.64 in 10.0 mi SW 18.4 mph 27.6 mph N/A   Clear
2:35 PM 72.9 °F 44.8 °F 37% 29.65 in 10.0 mi WSW 17.3 mph 27.6 mph N/A   Clear
2:55 PM 73.4 °F 45.0 °F 36% 29.65 in 10.0 mi WSW 16.1 mph 26.5 mph N/A   Clear
3:15 PM 72.9 °F 45.0 °F 37% 29.66 in 10.0 mi WSW 11.5 mph 18.4 mph N/A   Clear
3:35 PM 72.5 °F 44.2 °F 36% 29.67 in 10.0 mi WSW 19.6 mph 29.9 mph N/A   Clear
3:55 PM 71.2 °F 44.2 °F 38% 29.69 in 10.0 mi West 16.1 mph 27.6 mph N/A   Clear
4:15 PM 70.5 °F 44.2 °F 39% 29.70 in 10.0 mi West 16.1 mph 25.3 mph N/A   Clear
4:35 PM 70.0 °F 44.6 °F 40% 29.71 in 10.0 mi WSW 13.8 mph 26.5 mph N/A   Clear
4:55 PM 68.7 °F 44.6 °F 42% 29.73 in 10.0 mi West 16.1 mph 26.5 mph N/A   Clear
5:15 PM 67.5 °F 43.5 °F 42% 29.75 in 10.0 mi West 17.3 mph 25.3 mph N/A   Clear
5:35 PM 66.0 °F 43.2 °F 43% 29.77 in 10.0 mi West 13.8 mph 23.0 mph N/A   Clear
5:55 PM 65.7 °F 43.7 °F 45% 29.78 in 10.0 mi West 12.7 mph 20.7 mph N/A   Clear
6:15 PM 63.7 °F 44.4 °F 50% 29.80 in 10.0 mi NW 20.7 mph 27.6 mph N/A   Scattered Clouds
6:35 PM 61.2 °F 43.5 °F 52% 29.82 in 10.0 mi WNW 17.3 mph 25.3 mph N/A   Clear
6:55 PM 59.4 °F 43.9 °F 57% 29.83 in 10.0 mi NW 10.4 mph 20.7 mph N/A   Clear
7:15 PM 58.5 °F 43.0 °F 56% 29.85 in 10.0 mi NW 10.4 mph - N/A   Clear
7:35 PM 57.4 °F 42.8 °F 58% 29.87 in 10.0 mi WNW 10.4 mph - N/A   Clear
7:55 PM 56.3 °F 42.4 °F 60% 29.89 in 10.0 mi NW 9.2 mph - N/A   Clear
8:15 PM 54.3 °F 42.8 °F 65% 29.88 in 10.0 mi NW 6.9 mph - N/A   Clear
8:35 PM 52.0 °F 42.8 °F 71% 29.89 in 10.0 mi WNW 4.6 mph - N/A   Clear
8:55 PM 50.4 °F 43.2 °F 76% 29.90 in 10.0 mi West 4.6 mph - N/A   Clear
9:15 PM 49.5 °F 43.3 °F 79% 29.90 in 10.0 mi WNW 5.8 mph - N/A   Clear
9:35 PM 49.5 °F 43.7 °F 81% 29.90 in 10.0 mi WNW 3.5 mph - N/A   Clear
9:55 PM 49.1 °F 43.3 °F 81% 29.92 in 10.0 mi WSW 3.5 mph - N/A   Clear
10:15 PM 46.9 °F 43.2 °F 87% 29.92 in 10.0 mi West 6.9 mph - N/A   Clear
10:35 PM 50.7 °F 43.5 °F 76% 29.93 in 10.0 mi WSW 3.5 mph - N/A   Clear
10:55 PM 50.0 °F 44.6 °F 82% 29.93 in 10.0 mi WSW 4.6 mph - N/A   Clear
11:15 PM 50.0 °F 44.8 °F 82% 29.94 in 10.0 mi WSW 4.6 mph - N/A   Clear
11:35 PM 50.0 °F 45.3 °F 84% 29.94 in 10.0 mi West 3.5 mph - N/A   Clear
11:55 PM 49.1 °F 45.5 °F 87% 29.95 in 10.0 mi WSW 5.8 mph - N/A   Clear